Time,TemperatureF,DewpointF,PressureIn,WindDirection,WindDirectionDegrees,WindSpeedMPH,WindSpeedGustMPH,Humidity,HourlyPrecipIn,Conditions,Clouds,dailyrainin,SolarRadiationWatts/m^2,SoftwareType,DateUTC
2013-01-31 00:04:00,35.1,26.6,30.14,South,179,13.0,18.0,71,0.00,,,0.00,0,Wunderground v.1.15,2013-01-31 07:04:00,
2013-01-31 00:10:00,35.5,26.3,30.14,SSW,201,15.0,15.0,69,0.00,,,0.00,0,Wunderground v.1.15,2013-01-31 07:10:00,
2013-01-31 00:18:00,35.7,26.2,30.14,South,189,12.0,16.0,68,0.00,,,0.00,0,Wunderground v.1.15,2013-01-31 07:18:00,
2013-01-31 00:24:00,35.9,26.0,30.13,South,188,13.0,13.0,67,0.00,,,0.00,0,Wunderground v.1.15,2013-01-31 07:24:00,
2013-01-31 00:30:00,35.9,26.0,30.13,South,173,11.0,11.0,67,0.00,,,0.00,0,Wunderground v.1.15,2013-01-31 07:30:00,
2013-01-31 00:36:00,35.9,26.0,30.14,South,186,9.0,11.0,67,0.00,,,0.00,0,Wunderground v.1.15,2013-01-31 07:36:00,
2013-01-31 00:42:00,35.9,25.6,30.14,South,169,7.0,12.0,66,0.00,,,0.00,0,Wunderground v.1.15,2013-01-31 07:42:00,
2013-01-31 00:50:00,36.0,25.7,30.14,South,174,11.0,11.0,66,0.00,,,0.00,0,Wunderground v.1.15,2013-01-31 07:50:00,
2013-01-31 00:56:00,36.1,25.5,30.14,South,171,11.0,12.0,65,0.00,,,0.00,0,Wunderground v.1.15,2013-01-31 07:56:00,
2013-01-31 01:02:00,36.1,25.5,30.14,SSE,157,8.0,9.0,65,0.00,,,0.00,0,Wunderground v.1.15,2013-01-31 08:02:00,
2013-01-31 01:08:00,36.1,25.5,30.14,South,173,7.0,9.0,65,0.00,,,0.00,0,Wunderground v.1.15,2013-01-31 08:08:00,
2013-01-31 01:14:00,36.1,25.5,30.14,SSE,156,9.0,16.0,65,0.00,,,0.00,0,Wunderground v.1.15,2013-01-31 08:14:00,
2013-01-31 01:20:00,36.1,25.5,30.14,South,175,13.0,13.0,65,0.00,,,0.00,0,Wunderground v.1.15,2013-01-31 08:20:00,
2013-01-31 01:26:00,36.2,25.6,30.14,South,173,12.0,14.0,65,0.00,,,0.00,0,Wunderground v.1.15,2013-01-31 08:26:00,
2013-01-31 01:32:00,36.2,25.2,30.14,South,177,12.0,14.0,64,0.00,,,0.00,0,Wunderground v.1.15,2013-01-31 08:32:00,
2013-01-31 01:38:00,36.3,25.7,30.14,South,188,12.0,15.0,65,0.00,,,0.00,0,Wunderground v.1.15,2013-01-31 08:38:00,
2013-01-31 01:44:00,36.3,25.7,30.14,SSE,168,10.0,15.0,65,0.00,,,0.00,0,Wunderground v.1.15,2013-01-31 08:44:00,
2013-01-31 01:50:00,36.3,25.3,30.15,South,190,10.0,10.0,64,0.00,,,0.00,0,Wunderground v.1.15,2013-01-31 08:50:00,
2013-01-31 01:56:00,36.4,25.4,30.14,South,181,10.0,16.0,64,0.00,,,0.00,0,Wunderground v.1.15,2013-01-31 08:56:00,
2013-01-31 02:02:00,36.4,25.4,30.14,South,183,11.0,12.0,64,0.00,,,0.00,0,Wunderground v.1.15,2013-01-31 09:02:00,
2013-01-31 02:08:00,36.5,25.5,30.14,South,186,10.0,15.0,64,0.00,,,0.00,0,Wunderground v.1.15,2013-01-31 09:08:00,
2013-01-31 02:14:00,36.4,25.4,30.14,SSE,167,9.0,14.0,64,0.00,,,0.00,0,Wunderground v.1.15,2013-01-31 09:14:00,
2013-01-31 02:20:00,36.4,25.4,30.14,SSW,198,10.0,10.0,64,0.00,,,0.00,0,Wunderground v.1.15,2013-01-31 09:20:00,
2013-01-31 02:26:00,36.5,25.5,30.14,South,182,11.0,15.0,64,0.00,,,0.00,0,Wunderground v.1.15,2013-01-31 09:26:00,
2013-01-31 02:32:00,36.5,25.5,30.14,SSW,196,13.0,13.0,64,0.00,,,0.00,0,Wunderground v.1.15,2013-01-31 09:32:00,
2013-01-31 02:38:00,36.5,25.5,30.14,South,188,11.0,12.0,64,0.00,,,0.00,0,Wunderground v.1.15,2013-01-31 09:38:00,
2013-01-31 02:44:00,36.5,25.5,30.14,SW,224,11.0,19.0,64,0.00,,,0.00,0,Wunderground v.1.15,2013-01-31 09:44:00,
2013-01-31 02:50:00,36.5,25.5,30.15,South,177,12.0,15.0,64,0.00,,,0.00,0,Wunderground v.1.15,2013-01-31 09:50:00,
2013-01-31 02:58:00,36.6,25.6,30.15,SSW,194,14.0,21.0,64,0.00,,,0.00,0,Wunderground v.1.15,2013-01-31 09:58:00,
2013-01-31 03:04:00,36.6,25.2,30.14,South,175,12.0,16.0,63,0.00,,,0.00,0,Wunderground v.1.15,2013-01-31 10:04:00,
2013-01-31 03:10:00,36.6,25.2,30.15,South,180,12.0,13.0,63,0.00,,,0.00,0,Wunderground v.1.15,2013-01-31 10:10:00,
2013-01-31 03:16:00,36.6,25.2,30.15,SSE,151,11.0,13.0,63,0.00,,,0.00,0,Wunderground v.1.15,2013-01-31 10:16:00,
2013-01-31 03:22:00,36.6,24.8,30.15,South,175,10.0,11.0,62,0.00,,,0.00,0,Wunderground v.1.15,2013-01-31 10:22:00,
2013-01-31 03:28:00,36.5,25.1,30.15,South,182,10.0,16.0,63,0.00,,,0.00,0,Wunderground v.1.15,2013-01-31 10:28:00,
2013-01-31 03:34:00,36.5,25.1,30.15,South,180,12.0,17.0,63,0.00,,,0.00,0,Wunderground v.1.15,2013-01-31 10:34:00,
2013-01-31 03:40:00,36.5,25.1,30.15,South,179,11.0,11.0,63,0.00,,,0.00,0,Wunderground v.1.15,2013-01-31 10:40:00,
2013-01-31 03:46:00,36.4,25.4,30.15,SSE,163,9.0,14.0,64,0.00,,,0.00,0,Wunderground v.1.15,2013-01-31 10:46:00,
2013-01-31 03:52:00,36.4,25.4,30.15,South,169,11.0,17.0,64,0.00,,,0.00,0,Wunderground v.1.15,2013-01-31 10:52:00,
2013-01-31 03:58:00,36.4,25.4,30.15,SSE,159,14.0,17.0,64,0.00,,,0.00,0,Wunderground v.1.15,2013-01-31 10:58:00,
2013-01-31 04:04:00,36.4,25.4,30.14,South,169,14.0,14.0,64,0.00,,,0.00,0,Wunderground v.1.15,2013-01-31 11:04:00,
2013-01-31 04:10:00,36.4,25.4,30.15,SSW,200,13.0,16.0,64,0.00,,,0.00,0,Wunderground v.1.15,2013-01-31 11:10:00,
2013-01-31 04:16:00,36.4,25.4,30.15,South,183,13.0,18.0,64,0.00,,,0.00,0,Wunderground v.1.15,2013-01-31 11:16:00,
2013-01-31 04:22:00,36.4,25.4,30.15,SSE,157,13.0,13.0,64,0.00,,,0.00,0,Wunderground v.1.15,2013-01-31 11:22:00,
2013-01-31 04:28:00,36.5,25.1,30.14,SSE,166,12.0,15.0,63,0.00,,,0.00,0,Wunderground v.1.15,2013-01-31 11:28:00,
2013-01-31 04:34:00,36.5,25.1,30.14,SSE,166,12.0,17.0,63,0.00,,,0.00,0,Wunderground v.1.15,2013-01-31 11:34:00,
2013-01-31 04:40:00,36.6,25.2,30.14,SSE,163,12.0,12.0,63,0.00,,,0.00,0,Wunderground v.1.15,2013-01-31 11:40:00,
2013-01-31 04:46:00,36.6,25.2,30.15,SW,217,9.0,12.0,63,0.00,,,0.00,0,Wunderground v.1.15,2013-01-31 11:46:00,
2013-01-31 04:52:00,36.5,25.1,30.15,SSE,153,10.0,15.0,63,0.00,,,0.00,0,Wunderground v.1.15,2013-01-31 11:52:00,
2013-01-31 04:58:00,36.6,25.2,30.14,SSW,203,12.0,15.0,63,0.00,,,0.00,0,Wunderground v.1.15,2013-01-31 11:58:00,
2013-01-31 05:04:00,36.5,25.1,30.14,South,174,9.0,11.0,63,0.00,,,0.00,0,Wunderground v.1.15,2013-01-31 12:04:00,
2013-01-31 05:10:00,36.5,25.1,30.15,South,181,8.0,9.0,63,0.00,,,0.00,0,Wunderground v.1.15,2013-01-31 12:10:00,
2013-01-31 05:16:00,36.6,25.2,30.15,South,178,10.0,13.0,63,0.00,,,0.00,0,Wunderground v.1.15,2013-01-31 12:16:00,
2013-01-31 05:22:00,36.8,25.0,30.15,South,173,11.0,14.0,62,0.00,,,0.00,0,Wunderground v.1.15,2013-01-31 12:22:00,
2013-01-31 05:28:00,36.9,25.5,30.15,South,177,11.0,14.0,63,0.00,,,0.00,0,Wunderground v.1.15,2013-01-31 12:28:00,
2013-01-31 05:34:00,36.9,25.5,30.15,South,175,11.0,16.0,63,0.00,,,0.00,0,Wunderground v.1.15,2013-01-31 12:34:00,
2013-01-31 05:40:00,37.0,25.2,30.16,SSW,195,12.0,12.0,62,0.00,,,0.00,0,Wunderground v.1.15,2013-01-31 12:40:00,
2013-01-31 05:46:00,37.0,25.6,30.16,South,190,10.0,15.0,63,0.00,,,0.00,0,Wunderground v.1.15,2013-01-31 12:46:00,
2013-01-31 05:52:00,37.1,25.3,30.15,SSE,159,10.0,10.0,62,0.00,,,0.00,0,Wunderground v.1.15,2013-01-31 12:52:00,
2013-01-31 05:58:00,37.1,25.7,30.15,South,175,11.0,11.0,63,0.00,,,0.00,0,Wunderground v.1.15,2013-01-31 12:58:00,
2013-01-31 06:04:00,37.1,25.3,30.15,SSW,204,12.0,13.0,62,0.00,,,0.00,0,Wunderground v.1.15,2013-01-31 13:04:00,
2013-01-31 06:12:00,37.3,25.5,30.15,South,181,13.0,13.0,62,0.00,,,0.00,0,Wunderground v.1.15,2013-01-31 13:12:00,
2013-01-31 06:18:00,37.4,25.6,30.15,SSE,158,10.0,13.0,62,0.00,,,0.00,0,Wunderground v.1.15,2013-01-31 13:18:00,
2013-01-31 06:24:00,37.3,25.5,30.15,South,171,7.0,13.0,62,0.00,,,0.00,0,Wunderground v.1.15,2013-01-31 13:24:00,
2013-01-31 06:30:00,37.3,25.5,30.15,SSE,150,8.0,8.0,62,0.00,,,0.00,0,Wunderground v.1.15,2013-01-31 13:30:00,
2013-01-31 06:36:00,37.3,25.5,30.15,SE,135,7.0,16.0,62,0.00,,,0.00,0,Wunderground v.1.15,2013-01-31 13:36:00,
2013-01-31 06:42:00,37.3,25.8,30.15,SE,142,8.0,11.0,63,0.00,,,0.00,0,Wunderground v.1.15,2013-01-31 13:42:00,
2013-01-31 06:48:00,37.3,25.5,30.15,SSE,148,8.0,11.0,62,0.00,,,0.00,0,Wunderground v.1.15,2013-01-31 13:48:00,
2013-01-31 06:54:00,37.3,25.8,30.15,SSE,162,8.0,13.0,63,0.00,,,0.00,0,Wunderground v.1.15,2013-01-31 13:54:00,
2013-01-31 07:00:00,37.3,25.5,30.16,SSE,162,8.0,11.0,62,0.00,,,0.00,0,Wunderground v.1.15,2013-01-31 14:00:00,
2013-01-31 07:06:00,37.3,25.5,30.16,SSE,161,7.0,11.0,62,0.00,,,0.00,0,Wunderground v.1.15,2013-01-31 14:06:00,
2013-01-31 07:12:00,37.3,25.8,30.16,South,169,7.0,7.0,63,0.00,,,0.00,0,Wunderground v.1.15,2013-01-31 14:12:00,
2013-01-31 07:18:00,37.3,25.8,30.16,SE,143,9.0,16.0,63,0.00,,,0.00,0,Wunderground v.1.15,2013-01-31 14:18:00,
2013-01-31 07:24:00,37.4,25.9,30.15,SSE,165,11.0,11.0,63,0.00,,,0.00,0,Wunderground v.1.15,2013-01-31 14:24:00,
2013-01-31 07:30:00,37.4,26.3,30.16,SSE,154,8.0,8.0,64,0.00,,,0.00,0,Wunderground v.1.15,2013-01-31 14:30:00,
2013-01-31 07:36:00,37.3,27.3,30.16,SE,134,7.0,10.0,67,0.00,,,0.00,0,Wunderground v.1.15,2013-01-31 14:36:00,
2013-01-31 07:42:00,37.2,26.9,30.16,South,174,7.0,8.0,66,0.00,,,0.00,0,Wunderground v.1.15,2013-01-31 14:42:00,
2013-01-31 07:48:00,37.1,26.4,30.16,SE,144,8.0,12.0,65,0.00,,,0.00,0,Wunderground v.1.15,2013-01-31 14:48:00,
2013-01-31 07:54:00,37.1,26.0,30.16,SE,143,10.0,10.0,64,0.00,,,0.00,0,Wunderground v.1.15,2013-01-31 14:54:00,
2013-01-31 08:00:00,37.1,26.0,30.16,SSE,159,8.0,10.0,64,0.00,,,0.00,0,Wunderground v.1.15,2013-01-31 15:00:00,
2013-01-31 08:06:00,37.1,26.0,30.16,SSE,163,8.0,10.0,64,0.00,,,0.00,0,Wunderground v.1.15,2013-01-31 15:06:00,
2013-01-31 08:12:00,37.1,26.0,30.16,SSE,156,9.0,13.0,64,0.00,,,0.00,5,Wunderground v.1.15,2013-01-31 15:12:00,
2013-01-31 08:18:00,37.1,26.0,30.16,South,182,10.0,13.0,64,0.00,,,0.00,7,Wunderground v.1.15,2013-01-31 15:18:00,
2013-01-31 08:24:00,37.2,26.5,30.16,SSE,155,9.0,11.0,65,0.00,,,0.00,12,Wunderground v.1.15,2013-01-31 15:24:00,
2013-01-31 08:30:00,37.3,26.6,30.16,SSE,153,8.0,10.0,65,0.00,,,0.00,18,Wunderground v.1.15,2013-01-31 15:30:00,
2013-01-31 08:36:00,37.2,26.1,30.16,SE,146,9.0,10.0,64,0.00,,,0.00,21,Wunderground v.1.15,2013-01-31 15:36:00,
2013-01-31 08:42:00,37.3,26.2,30.16,SSE,163,9.0,10.0,64,0.00,,,0.00,26,Wunderground v.1.15,2013-01-31 15:42:00,
2013-01-31 08:48:00,37.4,26.3,30.16,SSE,160,8.0,10.0,64,0.00,,,0.00,33,Wunderground v.1.15,2013-01-31 15:48:00,
2013-01-31 08:54:00,37.5,26.4,30.16,SSE,157,8.0,8.0,64,0.00,,,0.00,39,Wunderground v.1.15,2013-01-31 15:54:00,
2013-01-31 09:00:00,37.5,26.0,30.16,SSE,168,7.0,7.0,63,0.00,,,0.00,46,Wunderground v.1.15,2013-01-31 16:00:00,
2013-01-31 09:06:00,37.7,26.2,30.16,South,182,6.0,7.0,63,0.00,,,0.00,53,Wunderground v.1.15,2013-01-31 16:06:00,
2013-01-31 09:12:00,37.7,26.6,30.16,SSE,155,6.0,6.0,64,0.00,,,0.00,65,Wunderground v.1.15,2013-01-31 16:12:00,
2013-01-31 09:18:00,37.8,26.7,30.16,South,182,6.0,10.0,64,0.00,,,0.00,69,Wunderground v.1.15,2013-01-31 16:18:00,
2013-01-31 09:24:00,37.9,26.4,30.16,SSE,159,7.0,7.0,63,0.00,,,0.00,72,Wunderground v.1.15,2013-01-31 16:24:00,
2013-01-31 09:30:00,38.0,26.5,30.16,South,173,7.0,7.0,63,0.00,,,0.00,81,Wunderground v.1.15,2013-01-31 16:30:00,
2013-01-31 09:36:00,38.1,26.6,30.16,South,182,7.0,10.0,63,0.00,,,0.00,84,Wunderground v.1.15,2013-01-31 16:36:00,
2013-01-31 09:42:00,38.2,26.7,30.16,South,186,7.0,7.0,63,0.00,,,0.00,102,Wunderground v.1.15,2013-01-31 16:42:00,
2013-01-31 09:48:00,38.3,26.4,30.16,South,179,7.0,12.0,62,0.00,,,0.00,130,Wunderground v.1.15,2013-01-31 16:48:00,
2013-01-31 09:54:00,38.5,26.6,30.16,South,178,9.0,11.0,62,0.00,,,0.00,139,Wunderground v.1.15,2013-01-31 16:54:00,
2013-01-31 10:00:00,38.7,26.8,30.17,South,178,8.0,8.0,62,0.00,,,0.00,162,Wunderground v.1.15,2013-01-31 17:00:00,
2013-01-31 10:06:00,38.9,27.0,30.16,SSE,163,8.0,11.0,62,0.00,,,0.00,188,Wunderground v.1.15,2013-01-31 17:06:00,
2013-01-31 10:12:00,39.1,26.8,30.16,SSE,160,9.0,10.0,61,0.00,,,0.00,204,Wunderground v.1.15,2013-01-31 17:12:00,
2013-01-31 10:18:00,39.3,27.0,30.16,SSE,166,10.0,13.0,61,0.00,,,0.00,213,Wunderground v.1.15,2013-01-31 17:18:00,
2013-01-31 10:24:00,39.4,27.1,30.17,South,183,9.0,12.0,61,0.00,,,0.00,199,Wunderground v.1.15,2013-01-31 17:24:00,
2013-01-31 10:30:00,39.4,27.5,30.17,South,180,10.0,10.0,62,0.00,,,0.00,206,Wunderground v.1.15,2013-01-31 17:30:00,
2013-01-31 10:36:00,39.5,27.5,30.17,South,176,10.0,10.0,62,0.00,,,0.00,207,Wunderground v.1.15,2013-01-31 17:36:00,
2013-01-31 10:42:00,39.4,27.5,30.17,SSE,157,9.0,13.0,62,0.00,,,0.00,216,Wunderground v.1.15,2013-01-31 17:42:00,
2013-01-31 10:48:00,39.5,27.5,30.17,South,183,10.0,13.0,62,0.00,,,0.00,193,Wunderground v.1.15,2013-01-31 17:48:00,
2013-01-31 10:54:00,39.5,27.5,30.17,South,171,11.0,11.0,62,0.00,,,0.00,193,Wunderground v.1.15,2013-01-31 17:54:00,
2013-01-31 11:00:00,39.5,27.2,30.17,SSE,166,10.0,10.0,61,0.00,,,0.00,172,Wunderground v.1.15,2013-01-31 18:00:00,
2013-01-31 11:06:00,39.6,27.2,30.17,South,190,9.0,12.0,61,0.00,,,0.00,172,Wunderground v.1.15,2013-01-31 18:06:00,
2013-01-31 11:12:00,39.6,27.6,30.17,SSE,165,9.0,9.0,62,0.00,,,0.00,197,Wunderground v.1.15,2013-01-31 18:12:00,
2013-01-31 11:18:00,39.7,27.3,30.17,SSE,163,9.0,10.0,61,0.00,,,0.00,190,Wunderground v.1.15,2013-01-31 18:18:00,
2013-01-31 11:24:00,39.8,27.4,30.17,SSE,153,9.0,12.0,61,0.00,,,0.00,211,Wunderground v.1.15,2013-01-31 18:24:00,
2013-01-31 11:30:00,40.0,27.2,30.17,SSE,149,8.0,12.0,60,0.00,,,0.00,214,Wunderground v.1.15,2013-01-31 18:30:00,
2013-01-31 11:36:00,40.1,27.3,30.17,SSE,157,10.0,12.0,60,0.00,,,0.00,214,Wunderground v.1.15,2013-01-31 18:36:00,
2013-01-31 11:42:00,40.2,27.8,30.17,South,170,10.0,11.0,61,0.00,,,0.00,218,Wunderground v.1.15,2013-01-31 18:42:00,
2013-01-31 11:48:00,40.3,27.9,30.17,South,186,9.0,11.0,61,0.00,,,0.00,179,Wunderground v.1.15,2013-01-31 18:48:00,
2013-01-31 11:54:00,40.3,27.5,30.17,South,185,9.0,9.0,60,0.00,,,0.00,197,Wunderground v.1.15,2013-01-31 18:54:00,
2013-01-31 12:00:00,40.3,27.5,30.16,South,172,9.0,11.0,60,0.00,,,0.00,206,Wunderground v.1.15,2013-01-31 19:00:00,
2013-01-31 12:06:00,40.4,28.0,30.17,SSE,157,9.0,11.0,61,0.00,,,0.00,229,Wunderground v.1.15,2013-01-31 19:06:00,
2013-01-31 12:12:00,40.6,28.2,30.17,SSE,163,9.0,9.0,61,0.00,,,0.00,271,Wunderground v.1.15,2013-01-31 19:12:00,
2013-01-31 12:18:00,40.8,28.0,30.17,SSE,153,8.0,10.0,60,0.00,,,0.00,197,Wunderground v.1.15,2013-01-31 19:18:00,
2013-01-31 12:24:00,40.7,27.9,30.16,SSE,159,9.0,10.0,60,0.00,,,0.00,185,Wunderground v.1.15,2013-01-31 19:24:00,
2013-01-31 12:30:00,40.7,27.9,30.16,SSE,159,8.0,8.0,60,0.00,,,0.00,211,Wunderground v.1.15,2013-01-31 19:30:00,
2013-01-31 12:36:00,40.7,27.9,30.16,SSE,155,7.0,14.0,60,0.00,,,0.00,190,Wunderground v.1.15,2013-01-31 19:36:00,
2013-01-31 12:42:00,40.7,27.9,30.16,South,186,8.0,9.0,60,0.00,,,0.00,169,Wunderground v.1.15,2013-01-31 19:42:00,
2013-01-31 12:48:00,40.7,28.3,30.16,SSE,165,8.0,10.0,61,0.00,,,0.00,311,Wunderground v.1.15,2013-01-31 19:48:00,
2013-01-31 12:54:00,40.9,28.5,30.15,SSE,154,8.0,11.0,61,0.00,,,0.00,285,Wunderground v.1.15,2013-01-31 19:54:00,
2013-01-31 13:00:00,41.1,28.7,30.15,South,175,10.0,10.0,61,0.00,,,0.00,251,Wunderground v.1.15,2013-01-31 20:00:00,
2013-01-31 13:06:00,41.2,28.8,30.15,South,178,10.0,14.0,61,0.00,,,0.00,272,Wunderground v.1.15,2013-01-31 20:06:00,
2013-01-31 13:12:00,41.1,28.7,30.15,SSE,163,10.0,10.0,61,0.00,,,0.00,294,Wunderground v.1.15,2013-01-31 20:12:00,
2013-01-31 13:18:00,41.2,28.8,30.15,SSE,157,9.0,12.0,61,0.00,,,0.00,290,Wunderground v.1.15,2013-01-31 20:18:00,
2013-01-31 13:24:00,41.4,29.7,30.14,South,181,9.0,9.0,63,0.00,,,0.00,350,Wunderground v.1.15,2013-01-31 20:24:00,
2013-01-31 13:30:00,42.0,29.5,30.14,SSE,165,8.0,10.0,61,0.00,,,0.00,570,Wunderground v.1.15,2013-01-31 20:30:00,
2013-01-31 13:36:00,42.6,29.3,30.14,SE,145,8.0,11.0,59,0.00,,,0.00,431,Wunderground v.1.15,2013-01-31 20:36:00,
2013-01-31 13:42:00,43.1,28.9,30.14,SE,144,9.0,10.0,57,0.00,,,0.00,703,Wunderground v.1.15,2013-01-31 20:42:00,
2013-01-31 13:48:00,43.3,29.9,30.14,South,186,7.0,10.0,59,0.00,,,0.00,359,Wunderground v.1.15,2013-01-31 20:48:00,
2013-01-31 13:54:00,43.5,29.3,30.13,SSE,155,7.0,9.0,57,0.00,,,0.00,311,Wunderground v.1.15,2013-01-31 20:54:00,
2013-01-31 14:00:00,43.3,29.1,30.13,SSE,149,9.0,11.0,57,0.00,,,0.00,272,Wunderground v.1.15,2013-01-31 21:00:00,
2013-01-31 14:06:00,43.1,28.9,30.13,SSE,157,9.0,12.0,57,0.00,,,0.00,383,Wunderground v.1.15,2013-01-31 21:06:00,
2013-01-31 14:12:00,43.0,29.2,30.13,SSW,203,8.0,8.0,58,0.00,,,0.00,279,Wunderground v.1.15,2013-01-31 21:12:00,
2013-01-31 14:18:00,42.7,29.4,30.13,SSE,158,8.0,10.0,59,0.00,,,0.00,373,Wunderground v.1.15,2013-01-31 21:18:00,
2013-01-31 14:24:00,42.4,29.1,30.13,SSW,198,7.0,10.0,59,0.00,,,0.00,287,Wunderground v.1.15,2013-01-31 21:24:00,
2013-01-31 14:30:00,42.1,29.2,30.14,South,171,8.0,9.0,60,0.00,,,0.00,139,Wunderground v.1.15,2013-01-31 21:30:00,
2013-01-31 14:36:00,41.6,29.1,30.13,South,174,9.0,9.0,61,0.00,,,0.00,116,Wunderground v.1.15,2013-01-31 21:36:00,
2013-01-31 14:42:00,41.1,29.5,30.13,SSW,196,8.0,16.0,63,0.00,,,0.00,105,Wunderground v.1.15,2013-01-31 21:42:00,
2013-01-31 14:48:00,40.7,29.1,30.13,SSW,213,7.0,16.0,63,0.00,,,0.00,98,Wunderground v.1.15,2013-01-31 21:48:00,
2013-01-31 14:54:00,40.4,28.8,30.13,SSW,197,5.0,7.0,63,0.00,,,0.00,107,Wunderground v.1.15,2013-01-31 21:54:00,
2013-01-31 15:00:00,40.3,29.8,30.13,SSW,197,3.0,3.0,66,0.00,,,0.00,118,Wunderground v.1.15,2013-01-31 22:00:00,
2013-01-31 15:06:00,40.3,29.5,30.13,SSW,200,2.0,6.0,65,0.00,,,0.00,120,Wunderground v.1.15,2013-01-31 22:06:00,
2013-01-31 15:12:00,40.3,29.5,30.13,SSW,202,3.0,4.0,65,0.00,,,0.00,121,Wunderground v.1.15,2013-01-31 22:12:00,
2013-01-31 15:18:00,40.3,29.1,30.13,South,176,3.0,7.0,64,0.00,,,0.00,121,Wunderground v.1.15,2013-01-31 22:18:00,
2013-01-31 15:24:00,40.4,29.2,30.13,South,178,5.0,7.0,64,0.00,,,0.00,123,Wunderground v.1.15,2013-01-31 22:24:00,
2013-01-31 15:30:00,40.5,28.9,30.13,South,169,6.0,8.0,63,0.00,,,0.00,127,Wunderground v.1.15,2013-01-31 22:30:00,
2013-01-31 15:36:00,40.5,28.9,30.12,South,186,6.0,8.0,63,0.00,,,0.00,134,Wunderground v.1.15,2013-01-31 22:36:00,
2013-01-31 15:42:00,40.5,28.9,30.13,South,179,6.0,7.0,63,0.00,,,0.00,137,Wunderground v.1.15,2013-01-31 22:42:00,
2013-01-31 15:48:00,40.5,28.9,30.13,South,169,5.0,7.0,63,0.00,,,0.00,83,Wunderground v.1.15,2013-01-31 22:48:00,
2013-01-31 15:54:00,40.4,28.8,30.13,SE,128,5.0,11.0,63,0.00,,,0.00,60,Wunderground v.1.15,2013-01-31 22:54:00,
2013-01-31 16:00:00,40.3,28.3,30.14,SSW,201,6.0,8.0,62,0.00,,,0.00,54,Wunderground v.1.15,2013-01-31 23:00:00,
2013-01-31 16:06:00,40.2,28.2,30.14,SSE,148,7.0,15.0,62,0.00,,,0.00,53,Wunderground v.1.15,2013-01-31 23:06:00,
2013-01-31 16:12:00,40.1,28.1,30.14,SSE,166,8.0,9.0,62,0.00,,,0.00,42,Wunderground v.1.15,2013-01-31 23:12:00,
2013-01-31 16:18:00,40.0,28.0,30.14,SSE,167,8.0,13.0,62,0.00,,,0.00,39,Wunderground v.1.15,2013-01-31 23:18:00,
2013-01-31 16:24:00,39.9,28.3,30.14,SSE,155,8.0,10.0,63,0.00,,,0.00,56,Wunderground v.1.15,2013-01-31 23:24:00,
2013-01-31 16:30:00,39.8,28.2,30.14,SE,145,8.0,8.0,63,0.00,,,0.00,76,Wunderground v.1.15,2013-01-31 23:30:00,
2013-01-31 16:36:00,39.8,28.6,30.14,SSE,154,6.0,8.0,64,0.00,,,0.00,83,Wunderground v.1.15,2013-01-31 23:36:00,
2013-01-31 16:42:00,39.7,28.5,30.14,SE,128,3.0,7.0,64,0.00,,,0.00,63,Wunderground v.1.15,2013-01-31 23:42:00,
2013-01-31 16:48:00,39.7,28.5,30.14,SSE,162,6.0,7.0,64,0.00,,,0.00,67,Wunderground v.1.15,2013-01-31 23:48:00,
2013-01-31 16:54:00,39.7,28.1,30.13,SSE,168,6.0,7.0,63,0.00,,,0.00,56,Wunderground v.1.15,2013-01-31 23:54:00,
2013-01-31 17:02:00,39.6,28.4,30.14,South,169,8.0,8.0,64,0.00,,,0.00,35,Wunderground v.1.15,2013-02-01 00:02:00,
2013-01-31 17:10:00,39.4,28.6,30.14,SSE,153,4.0,6.0,65,0.00,,,0.00,28,Wunderground v.1.15,2013-02-01 00:10:00,
2013-01-31 17:16:00,39.3,28.5,30.13,SE,129,3.0,4.0,65,0.00,,,0.00,18,Wunderground v.1.15,2013-02-01 00:16:00,
2013-01-31 17:22:00,39.1,28.3,30.13,SE,142,4.0,5.0,65,0.00,,,0.00,12,Wunderground v.1.15,2013-02-01 00:22:00,
2013-01-31 17:34:00,38.7,27.9,30.13,SE,136,3.0,3.0,65,0.00,,,0.00,7,Wunderground v.1.15,2013-02-01 00:34:00,
2013-01-31 17:42:00,38.5,28.1,30.13,SSE,155,5.0,10.0,66,0.00,,,0.00,0,Wunderground v.1.15,2013-02-01 00:42:00,
2013-01-31 17:48:00,38.4,28.0,30.13,SSE,159,6.0,7.0,66,0.00,,,0.00,0,Wunderground v.1.15,2013-02-01 00:48:00,
2013-01-31 17:54:00,38.4,28.0,30.13,SSE,167,6.0,6.0,66,0.00,,,0.00,0,Wunderground v.1.15,2013-02-01 00:54:00,
2013-01-31 18:00:00,38.4,28.0,30.12,SSE,167,3.0,3.0,66,0.00,,,0.00,0,Wunderground v.1.15,2013-02-01 01:00:00,
2013-01-31 18:06:00,38.3,27.9,30.12,SSE,167,1.0,3.0,66,0.00,,,0.00,0,Wunderground v.1.15,2013-02-01 01:06:00,
2013-01-31 18:12:00,38.2,28.6,30.12,ENE,57,1.0,5.0,68,0.00,,,0.00,0,Wunderground v.1.15,2013-02-01 01:12:00,
2013-01-31 18:18:00,37.8,29.2,30.12,NE,49,4.0,5.0,71,0.00,,,0.00,0,Wunderground v.1.15,2013-02-01 01:18:00,
2013-01-31 18:24:00,37.5,29.3,30.12,NE,49,2.0,4.0,72,0.00,,,0.00,0,Wunderground v.1.15,2013-02-01 01:24:00,
2013-01-31 18:30:00,37.3,29.1,30.12,NE,49,0.0,0.0,72,0.00,,,0.00,0,Wunderground v.1.15,2013-02-01 01:30:00,
2013-01-31 18:36:00,37.1,29.2,30.12,NE,49,0.0,0.0,73,0.00,,,0.00,0,Wunderground v.1.15,2013-02-01 01:36:00,
2013-01-31 18:42:00,36.8,29.0,30.12,NE,49,0.0,2.0,73,0.00,,,0.00,0,Wunderground v.1.15,2013-02-01 01:42:00,
2013-01-31 18:48:00,36.6,29.1,30.12,NE,49,1.0,2.0,74,0.00,,,0.00,0,Wunderground v.1.15,2013-02-01 01:48:00,
2013-01-31 18:54:00,36.4,28.9,30.12,NE,49,0.0,2.0,74,0.00,,,0.00,0,Wunderground v.1.15,2013-02-01 01:54:00,
2013-01-31 19:00:00,36.2,28.4,30.12,NE,49,0.0,0.0,73,0.00,,,0.00,0,Wunderground v.1.15,2013-02-01 02:00:00,
2013-01-31 19:06:00,36.1,28.6,30.12,NE,49,1.0,2.0,74,0.00,,,0.00,0,Wunderground v.1.15,2013-02-01 02:06:00,
2013-01-31 19:12:00,36.1,28.6,30.12,NE,49,1.0,1.0,74,0.00,,,0.00,0,Wunderground v.1.15,2013-02-01 02:12:00,
2013-01-31 19:18:00,36.0,28.5,30.11,NE,49,0.0,1.0,74,0.00,,,0.00,0,Wunderground v.1.15,2013-02-01 02:18:00,
2013-01-31 19:24:00,36.0,28.5,30.11,NE,49,0.0,0.0,74,0.00,,,0.00,0,Wunderground v.1.15,2013-02-01 02:24:00,
2013-01-31 19:30:00,36.0,28.8,30.11,NE,49,0.0,0.0,75,0.00,,,0.00,0,Wunderground v.1.15,2013-02-01 02:30:00,
2013-01-31 19:36:00,35.9,28.1,30.11,NE,49,0.0,0.0,73,0.00,,,0.00,0,Wunderground v.1.15,2013-02-01 02:36:00,
2013-01-31 19:42:00,35.8,28.0,30.12,NE,49,0.0,0.0,73,0.00,,,0.00,0,Wunderground v.1.15,2013-02-01 02:42:00,
2013-01-31 19:48:00,35.8,27.3,30.12,NE,49,0.0,1.0,71,0.00,,,0.00,0,Wunderground v.1.15,2013-02-01 02:48:00,
2013-01-31 19:54:00,35.9,27.1,30.12,NE,49,0.0,0.0,70,0.00,,,0.00,0,Wunderground v.1.15,2013-02-01 02:54:00,
2013-01-31 20:00:00,36.1,26.6,30.11,West,263,1.0,2.0,68,0.00,,,0.00,0,Wunderground v.1.15,2013-02-01 03:00:00,
2013-01-31 20:06:00,36.4,26.5,30.12,South,171,3.0,4.0,67,0.00,,,0.00,0,Wunderground v.1.15,2013-02-01 03:06:00,
2013-01-31 20:12:00,36.9,26.2,30.11,SSE,151,5.0,5.0,65,0.00,,,0.00,0,Wunderground v.1.15,2013-02-01 03:12:00,
2013-01-31 20:18:00,37.3,26.6,30.11,SSE,155,4.0,6.0,65,0.00,,,0.00,0,Wunderground v.1.15,2013-02-01 03:18:00,
2013-01-31 20:24:00,37.6,26.9,30.11,SSE,167,3.0,5.0,65,0.00,,,0.00,0,Wunderground v.1.15,2013-02-01 03:24:00,
2013-01-31 20:30:00,37.7,26.6,30.11,SSE,167,3.0,3.0,64,0.00,,,0.00,0,Wunderground v.1.15,2013-02-01 03:30:00,
2013-01-31 20:36:00,37.8,26.7,30.11,SSE,167,3.0,4.0,64,0.00,,,0.00,0,Wunderground v.1.15,2013-02-01 03:36:00,
2013-01-31 20:42:00,37.8,26.7,30.11,SE,134,2.0,5.0,64,0.00,,,0.00,0,Wunderground v.1.15,2013-02-01 03:42:00,
2013-01-31 20:48:00,37.7,26.2,30.11,SSE,155,3.0,5.0,63,0.00,,,0.00,0,Wunderground v.1.15,2013-02-01 03:48:00,
2013-01-31 20:56:00,37.8,26.7,30.11,SSE,161,4.0,5.0,64,0.00,,,0.00,0,Wunderground v.1.15,2013-02-01 03:56:00,
2013-01-31 21:02:00,37.8,26.7,30.11,SSE,161,2.0,3.0,64,0.00,,,0.00,0,Wunderground v.1.15,2013-02-01 04:02:00,
2013-01-31 21:08:00,37.7,26.6,30.10,SSE,161,1.0,3.0,64,0.00,,,0.00,0,Wunderground v.1.15,2013-02-01 04:08:00,
2013-01-31 21:14:00,37.5,26.4,30.10,SSE,161,0.0,0.0,64,0.00,,,0.00,0,Wunderground v.1.15,2013-02-01 04:14:00,
2013-01-31 21:20:00,37.3,26.6,30.10,SSE,161,0.0,0.0,65,0.00,,,0.00,0,Wunderground v.1.15,2013-02-01 04:20:00,
2013-01-31 21:26:00,37.1,26.8,30.10,SSE,161,0.0,0.0,66,0.00,,,0.00,0,Wunderground v.1.15,2013-02-01 04:26:00,
2013-01-31 21:32:00,36.8,26.9,30.10,SSE,161,0.0,0.0,67,0.00,,,0.00,0,Wunderground v.1.15,2013-02-01 04:32:00,
2013-01-31 21:38:00,36.6,27.0,30.10,SSE,161,0.0,4.0,68,0.00,,,0.00,0,Wunderground v.1.15,2013-02-01 04:38:00,
2013-01-31 21:44:00,36.3,26.7,30.10,SSE,161,0.0,0.0,68,0.00,,,0.00,0,Wunderground v.1.15,2013-02-01 04:44:00,
2013-01-31 21:50:00,36.1,26.9,30.10,SSE,161,0.0,0.0,69,0.00,,,0.00,0,Wunderground v.1.15,2013-02-01 04:50:00,
2013-01-31 21:56:00,35.8,27.3,30.09,NE,44,1.0,3.0,71,0.00,,,0.00,0,Wunderground v.1.15,2013-02-01 04:56:00,
2013-01-31 22:00:00,35.7,27.2,30.10,NE,44,2.0,4.0,71,0.00,,,0.00,0,Wunderground v.1.15,2013-02-01 05:00:00,
2013-01-31 22:04:00,35.6,28.8,30.10,NE,44,2.0,4.0,76,0.00,,,0.00,0,Wunderground v.1.15,2013-02-01 05:04:00,
2013-01-31 22:06:00,35.6,27.5,30.09,NE,44,2.0,4.0,72,0.00,,,0.00,0,Wunderground v.1.15,2013-02-01 05:06:00,
2013-01-31 22:12:00,35.4,27.3,30.10,NE,44,0.0,1.0,72,0.00,,,0.00,0,Wunderground v.1.15,2013-02-01 05:12:00,
2013-01-31 22:16:00,35.3,27.2,30.09,NE,44,0.0,2.0,72,0.00,,,0.00,0,Wunderground v.1.15,2013-02-01 05:16:00,
2013-01-31 22:22:00,35.1,27.3,30.09,NE,44,1.0,1.0,73,0.00,,,0.00,0,Wunderground v.1.15,2013-02-01 05:22:00,
2013-01-31 22:28:00,34.9,27.1,30.09,NE,44,1.0,1.0,73,0.00,,,0.00,0,Wunderground v.1.15,2013-02-01 05:28:00,
2013-01-31 22:34:00,34.7,26.9,30.09,NE,44,0.0,0.0,73,0.00,,,0.00,0,Wunderground v.1.15,2013-02-01 05:34:00,
2013-01-31 22:40:00,34.6,27.2,30.09,NE,44,0.0,0.0,74,0.00,,,0.00,0,Wunderground v.1.15,2013-02-01 05:40:00,
2013-01-31 22:46:00,34.3,26.9,30.09,NE,44,0.0,0.0,74,0.00,,,0.00,0,Wunderground v.1.15,2013-02-01 05:46:00,
2013-01-31 22:52:00,34.1,26.7,30.08,WSW,244,1.0,3.0,74,0.00,,,0.00,0,Wunderground v.1.15,2013-02-01 05:52:00,
2013-01-31 22:58:00,33.8,26.4,30.08,South,183,1.0,3.0,74,0.00,,,0.00,0,Wunderground v.1.15,2013-02-01 05:58:00,
2013-01-31 23:04:00,33.5,26.4,30.08,South,183,0.0,1.0,75,0.00,,,0.00,0,Wunderground v.1.15,2013-02-01 06:04:00,
2013-01-31 23:10:00,33.3,26.2,30.08,South,182,1.0,2.0,75,0.00,,,0.00,0,Wunderground v.1.15,2013-02-01 06:10:00,
2013-01-31 23:16:00,33.2,26.5,30.08,South,182,2.0,3.0,76,0.00,,,0.00,0,Wunderground v.1.15,2013-02-01 06:16:00,
2013-01-31 23:22:00,33.1,26.4,30.08,South,182,2.0,4.0,76,0.00,,,0.00,0,Wunderground v.1.15,2013-02-01 06:22:00,
2013-01-31 23:28:00,33.2,26.8,30.08,South,178,3.0,4.0,77,0.00,,,0.00,0,Wunderground v.1.15,2013-02-01 06:28:00,
2013-01-31 23:34:00,33.5,26.7,30.07,NNE,24,4.0,6.0,76,0.00,,,0.00,0,Wunderground v.1.15,2013-02-01 06:34:00,
2013-01-31 23:40:00,33.8,26.7,30.07,NNE,26,4.0,4.0,75,0.00,,,0.00,0,Wunderground v.1.15,2013-02-01 06:40:00,
2013-01-31 23:46:00,34.0,26.9,30.07,NNE,28,3.0,4.0,75,0.00,,,0.00,0,Wunderground v.1.15,2013-02-01 06:46:00,
2013-01-31 23:52:00,34.1,27.0,30.07,NNE,28,1.0,2.0,75,0.00,,,0.00,0,Wunderground v.1.15,2013-02-01 06:52:00,
2013-01-31 23:58:00,34.1,27.0,30.07,ESE,103,1.0,3.0,75,0.00,,,0.00,0,Wunderground v.1.15,2013-02-01 06:58:00,